[[{"header":{"parameterUnit":"m.s-1","parameterCategory":1,"la1":30.2991,"la2":30.254,"lo1":-89.0895,"lo2":-89.0444,"dy":0.0017,"dx":0.0017,"nx":28,"ny":28,"refTime":"2023-04-23T21:00:00:Z","depth":0,"parameterNumber":2,"parameterNumberName":"U-component_of_WINDS"},"data":[0,0,0,0,0,0,0,0,0,0,0,0,0,0,0,0,0,0,0,0,0,0,0,0,0,0,0,0,0,0,0,0,0,0,0,0,0,0,0,0,0,0,0,0,0,0,0,0,0,0,0,0,0,0,0,0,0,0,-3.1019,-3.1018,0,-3.0942,-3.0941,-3.094,-3.0821,-3.0819,-3.0817,-3.0815,-3.0737,-3.0737,-3.0737,0,0,0,0,0,0,0,0,0,0,0,0,0,-3.1065,-3.1065,-3.1019,-3.1018,-3.1017,-3.0942,-3.0941,-3.094,-3.0822,-3.0819,-3.0816,-3.0814,-3.0737,-3.0737,-3.0737,0,0,0,0,0,0,0,0,0,0,0,0,0,-3.1023,-3.1065,-3.1019,-3.0949,-3.0942,-3.0943,-3.0941,-3.094,-3.0822,-3.0819,-3.0816,-3.0813,-3.0737,-3.0737,-3.0737,-3.08,0,0,-3.0736,-3.0736,0,0,0,0,0,0,0,0,-3.1025,-3.1021,-3.096,-3.0954,-3.0946,-3.0888,-3.0929,-3.0893,-3.0823,-3.0868,-3.0815,-3.0811,-3.079,-3.0785,-3.0778,-3.0796,-3.0793,-3.0736,-3.0736,-3.0736,-3.0736,0,0,0,0,0,0,0,-3.1028,-3.1024,-3.0989,-3.0959,-3.0951,-3.0922,-3.0912,-3.0921,-3.0848,-3.0864,-3.0855,-3.0847,-3.0785,-3.0778,-3.0775,-3.0792,-3.0736,-3.0736,-3.0736,-3.0736,-3.0861,-3.0864,0,0,0,0,0,0,-3.1041,-3.1027,-3.0991,-3.0986,-3.0978,-3.0924,-3.0913,-3.091,-3.0847,-3.0835,-3.085,-3.0842,-3.078,-3.0775,-3.0772,-3.0842,-3.0736,-3.0736,-3.0736,-3.0857,-3.0862,-3.0865,0,0,0,0,0,0,-3.1043,-3.1039,-3.0994,-3.1004,-3.0996,-3.0926,-3.0924,-3.091,-3.0903,-3.0837,-3.0823,-3.0856,-3.0777,-3.0772,-3.0794,-3.0838,-3.0736,-3.0736,-3.0853,-3.0859,-3.0863,-3.0984,0,0,0,0,0,0,-3.1045,-3.104,-3.1063,-3.1006,-3.0996,-3.1017,-3.0926,-3.0911,-3.0903,-3.0891,-3.0839,-3.0827,-3.0774,-3.0795,-3.0794,-3.0836,-3.0736,-3.0849,-3.0856,-3.0862,-3.0976,-3.0993,-3.1007,0,0,0,0,0,-3.1047,-3.11,-3.1065,-3.1061,-3.1023,-3.102,-3.1015,-3.0952,-3.0907,-3.0929,-3.0888,-3.0829,-3.0834,-3.0799,-3.0796,-3.0839,-3.0846,-3.0854,-3.0861,-3.0969,-3.0989,-3.1007,0,0,0,0,0,0,-3.1163,-3.1091,-3.1051,-3.1087,-3.1061,-3.1,-3.1026,-3.0976,-3.0962,-3.0952,-3.0876,-3.0865,-3.0897,-3.087,-3.0832,-3.0898,-3.0831,-3.0839,-3.0914,-3.0933,-3.0948,-3.0953,-3.0736,0,0,0,0,0,-3.1194,-3.1197,-3.1133,-3.1171,-3.116,-3.1096,-3.1093,-3.1047,-3.1017,-3.1005,-3.0965,-3.0938,-3.0933,-3.0932,-3.0924,-3.0973,-3.096,-3.1001,-3.1017,-3.103,-3.1037,-3.1062,-3.1079,-3.089,-3.089,-3.089,0,0,-3.1255,-3.1216,-3.1223,-3.1194,-3.1168,-3.1174,-3.1087,-3.1097,-3.1101,-3.1006,-3.1025,-3.0995,-3.096,-3.0997,-3.101,-3.0975,-3.1087,-3.104,-3.1051,-3.105,-3.1071,-3.1089,-3.1105,-3.0896,-3.0895,-3.0894,0,0,-3.137,-3.1341,-3.137,-3.1347,-3.1309,-3.1267,-3.1274,-3.1222,-3.1198,-3.1216,-3.1146,-3.115,-3.1144,-3.1122,-3.1111,-3.1222,-3.1168,-3.1222,-3.1303,-3.1328,-3.1343,-3.1356,-3.1396,-3.1411,-3.123,-3.123,-3.123,0,-3.1452,-3.1457,-3.1391,-3.1406,-3.1396,-3.1312,-3.1341,-3.1322,-3.1284,-3.128,-3.1241,-3.1233,-3.1204,-3.1234,-3.1262,-3.1255,-3.1262,-3.1226,-3.1346,-3.1358,-3.1369,-3.1407,-3.1422,-3.1237,-3.1236,-3.1235,-3.1235,0,-3.1559,-3.1565,-3.1593,-3.1559,-3.1552,-3.1574,-3.1513,-3.1514,-3.1471,-3.1433,-3.1454,-3.1416,-3.14,-3.1404,-3.1362,-3.143,-3.1409,-3.136,-3.1291,-3.1395,-3.1429,-3.1443,-3.1246,-3.1244,-3.1242,-3.124,0,0,-3.1742,-3.1674,-3.1685,-3.167,-3.1624,-3.1627,-3.1647,-3.1632,-3.1635,-3.1613,-3.1627,-3.1626,-3.1581,-3.1568,-3.1522,-3.1545,-3.1637,-3.1493,-3.1491,-3.152,-3.171,-3.1747,-3.1765,-3.1602,-3.1604,-3.1606,-3.1713,0,-3.1847,-3.1875,-3.1818,-3.1861,-3.1866,-3.1788,-3.1805,-3.178,-3.1747,-3.1746,-3.1709,-3.1709,-3.165,-3.1641,-3.1661,-3.1622,-3.1674,-3.1613,-3.1615,-3.1616,-3.1624,-3.1782,-3.182,-3.1923,-3.1726,-3.1728,-3.173,0,-3.1973,-3.1958,-3.2001,-3.1955,-3.1955,-3.1971,-3.1953,-3.1955,-3.1925,-3.1899,-3.1887,-3.1834,-3.1852,-3.1787,-3.181,-3.1771,-3.1769,-3.175,-3.1753,-3.1749,-3.1678,-3.1782,-3.1954,-3.1969,-3.175,-3.1748,-3.1747,0,-3.2102,-3.2093,-3.2117,-3.2107,-3.2054,-3.2067,-3.2046,-3.2013,-3.2009,-3.1994,-3.1991,-3.1979,-3.1972,-3.1965,-3.1911,-3.1869,-3.1941,-3.1872,-3.192,-3.1922,-3.1937,-3.1936,-3.211,-3.1938,-3.1938,-3.1938,-3.1937,0,-3.2224,-3.2253,-3.2175,-3.219,-3.2222,-3.2157,-3.219,-3.2161,-3.2134,-3.2143,-3.2076,-3.2086,-3.2015,-3.2018,-3.1977,-3.2003,-3.2001,-3.1981,-3.1969,-3.1986,-3.1988,-3.1982,-3.1973,-3.1942,-3.1941,-3.194,-3.1939,0,-3.2372,-3.2321,-3.2343,-3.2292,-3.228,-3.2305,-3.2262,-3.2275,-3.2238,-3.2251,-3.225,-3.2193,-3.2193,-3.214,-3.2129,-3.2101,-3.2145,-3.2121,-3.2155,-3.2147,-3.2198,-3.2194,-3.2372,-3.2393,-3.2209,-3.2211,-3.2213,0,-3.2453,-3.2473,-3.2426,-3.2427,-3.2409,-3.2412,-3.2407,-3.2346,-3.2344,-3.2314,-3.2331,-3.2326,-3.2319,-3.2324,-3.2281,-3.2274,-3.2248,-3.2312,-3.2246,-3.2263,-3.2249,-3.2248,-3.225,-3.2325,-3.2327,-3.2329,-3.233,0,-3.2601,-3.2576,-3.2571,-3.2559,-3.2556,-3.2543,-3.2526,-3.2532,-3.2465,-3.2466,-3.2466,-3.2461,-3.2451,-3.2447,-3.2432,-3.2411,-3.236,-3.2352,-3.2362,-3.2379,-3.2398,-3.2388,-3.2191,-3.2347,-3.2346,-3.2344,-3.2343,-3.2343,-3.2717,-3.2733,-3.2702,-3.27,-3.2682,-3.2668,-3.2678,-3.2644,-3.2643,-3.2629,-3.2594,-3.26,-3.2573,-3.2548,-3.2532,-3.2537,-3.2505,-3.252,-3.2524,-3.2529,-3.2538,-3.2399,-3.2534,-3.2533,-3.2533,-3.2532,-3.2532,0,-3.2862,-3.2839,-3.2838,-3.2817,-3.2817,-3.277,-3.275,-3.2753,-3.2759,-3.2738,-3.2733,-3.2734,-3.2731,-3.269,-3.2683,-3.2695,-3.2671,-3.2695,-3.2692,-3.2689,-3.2567,-3.2558,-3.2714,-3.2714,-3.2714,-3.2714,-3.2714,-3.2714,-3.2937,-3.2961,-3.2933,-3.2948,-3.2925,-3.293,-3.2923,-3.2911,-3.2894,-3.2899,-3.2896,-3.287,-3.2841,-3.2832,-3.2828,-3.2816,-3.2816,-3.2848,-3.2828,-3.2715,-3.2697,-3.268,-3.2671,-3.2848,-3.2848,-3.2949,-3.295,-3.2951]},{"header":{"parameterUnit":"m.s-1","parameterCategory":1,"la1":30.2991,"la2":30.254,"lo1":-89.0895,"lo2":-89.0444,"dy":0.0017,"dx":0.0017,"nx":28,"ny":28,"refTime":"2023-04-23T21:00:00:Z","depth":0,"parameterNumber":3,"parameterNumberName":"V-component_of_WINDS"},"data":[0,0,0,0,0,0,0,0,0,0,0,0,0,0,0,0,0,0,0,0,0,0,0,0,0,0,0,0,0,0,0,0,0,0,0,0,0,0,0,0,0,0,0,0,0,0,0,0,0,0,0,0,0,0,0,0,0,0,2.5813,2.5813,0,2.5842,2.5842,2.5842,2.5915,2.5917,2.5918,2.592,2.5944,2.5943,2.5942,0,0,0,0,0,0,0,0,0,0,0,0,0,2.5816,2.5816,2.5812,2.5813,2.5813,2.5841,2.5842,2.5842,2.5915,2.5917,2.5919,2.5921,2.5944,2.5943,2.5942,0,0,0,0,0,0,0,0,0,0,0,0,0,2.5826,2.5815,2.5812,2.5853,2.5857,2.5841,2.5842,2.5842,2.5915,2.5917,2.5919,2.5921,2.5945,2.5943,2.5942,2.5888,0,0,2.5939,2.5938,0,0,0,0,0,0,0,0,2.5826,2.5826,2.5847,2.585,2.5855,2.5877,2.5852,2.5857,2.5914,2.5892,2.592,2.5923,2.592,2.5921,2.5921,2.5889,2.589,2.5938,2.5938,2.5937,2.5937,0,0,0,0,0,0,0,2.5825,2.5825,2.5824,2.5847,2.5852,2.5869,2.5873,2.5853,2.5892,2.5895,2.59,2.5903,2.5922,2.5922,2.5922,2.589,2.5938,2.5937,2.5937,2.5936,2.5816,2.5814,0,0,0,0,0,0,2.5819,2.5824,2.5823,2.5825,2.5846,2.5867,2.5871,2.5868,2.5893,2.5899,2.5901,2.5906,2.5923,2.5923,2.5923,2.5861,2.5937,2.5936,2.5935,2.5819,2.5816,2.5813,0,0,0,0,0,0,2.5819,2.5818,2.5822,2.5826,2.5828,2.5864,2.5859,2.5867,2.5867,2.5898,2.5904,2.5893,2.5924,2.5925,2.5897,2.5863,2.5935,2.5934,2.5821,2.5818,2.5814,2.5737,0,0,0,0,0,0,2.5819,2.5818,2.5798,2.5825,2.5827,2.5796,2.5857,2.5866,2.5865,2.5872,2.5892,2.5898,2.5926,2.5898,2.5895,2.5863,2.5933,2.5825,2.582,2.5815,2.5743,2.5731,2.5721,0,0,0,0,0,2.5819,2.5774,2.5797,2.5796,2.5804,2.5794,2.5795,2.583,2.5862,2.5842,2.5862,2.5897,2.5867,2.5895,2.5892,2.5858,2.5827,2.5821,2.5816,2.5747,2.5733,2.5721,0,0,0,0,0,0,2.574,2.5778,2.5804,2.5767,2.5777,2.5806,2.5782,2.5814,2.5813,2.582,2.5862,2.5866,2.5832,2.5843,2.5872,2.5808,2.5853,2.5847,2.5802,2.5789,2.5778,2.5776,2.5932,0,0,0,0,0,2.5719,2.5709,2.5742,2.5706,2.571,2.5745,2.5742,2.5769,2.578,2.5783,2.5802,2.5809,2.5802,2.5796,2.5791,2.5745,2.575,2.5721,2.571,2.5701,2.5695,2.5671,2.5659,2.5795,2.5795,2.5795,0,0,2.5674,2.5694,2.5684,2.5691,2.5702,2.5689,2.5748,2.5732,2.5723,2.5781,2.5756,2.5769,2.5781,2.5744,2.5728,2.5752,2.5659,2.5694,2.5687,2.5685,2.5664,2.5651,2.564,2.5791,2.5792,2.5792,0,0,2.5586,2.56,2.5572,2.5582,2.5599,2.5623,2.5616,2.5641,2.5653,2.5629,2.5672,2.5661,2.5647,2.5654,2.5656,2.5572,2.5604,2.5569,2.5512,2.5489,2.5479,2.5469,2.5439,2.5428,2.5563,2.5563,2.5563,0,2.5527,2.5512,2.5553,2.5535,2.5537,2.5591,2.5562,2.5569,2.5582,2.5581,2.5608,2.5593,2.5604,2.557,2.555,2.5549,2.5542,2.5566,2.5477,2.5468,2.546,2.5432,2.542,2.5558,2.5559,2.5559,2.556,0,2.5439,2.5428,2.5403,2.5417,2.5415,2.5392,2.5428,2.5422,2.5449,2.547,2.5445,2.5461,2.5461,2.5455,2.548,2.5423,2.5438,2.547,2.5516,2.5442,2.5416,2.5405,2.5552,2.5554,2.5555,2.5556,0,0,2.5301,2.5339,2.5329,2.5336,2.5359,2.535,2.5329,2.5331,2.5324,2.5332,2.5314,2.5302,2.5333,2.5335,2.5362,2.5341,2.5274,2.5377,2.5377,2.5356,2.5212,2.5187,2.5174,2.5296,2.5294,2.5293,2.5211,0,2.5218,2.5186,2.5223,2.5182,2.5172,2.5224,2.5205,2.5217,2.5236,2.5229,2.5249,2.524,2.5282,2.5283,2.5266,2.5286,2.5245,2.5292,2.5279,2.5278,2.5273,2.5161,2.5134,2.5056,2.5201,2.52,2.5199,0,2.5116,2.5121,2.508,2.5106,2.5103,2.5086,2.5091,2.5084,2.5098,2.5113,2.5116,2.5149,2.513,2.5176,2.5148,2.5179,2.5176,2.5185,2.5183,2.5182,2.5233,2.5156,2.5032,2.502,2.5183,2.5184,2.5185,0,2.5019,2.5015,2.499,2.4995,2.5025,2.5012,2.5023,2.504,2.5039,2.5042,2.5042,2.5042,2.5042,2.5041,2.5073,2.5104,2.5042,2.5091,2.5053,2.5052,2.5036,2.5037,2.491,2.5035,2.5036,2.5036,2.5036,0,2.4922,2.4894,2.4947,2.4931,2.4902,2.4945,2.4914,2.4931,2.4946,2.4933,2.4978,2.4965,2.5009,2.5001,2.5025,2.4999,2.4998,2.5009,2.5016,2.5005,2.5003,2.5002,2.5008,2.5033,2.5034,2.5034,2.5035,0,2.4807,2.4842,2.4818,2.485,2.4857,2.4834,2.486,2.4846,2.487,2.4853,2.4852,2.4887,2.488,2.4912,2.491,2.4927,2.4887,2.4903,2.4882,2.4887,2.4847,2.485,2.4715,2.4699,2.4835,2.4834,2.4833,0,2.4743,2.4723,2.4753,2.4749,2.4759,2.4752,2.4752,2.4793,2.4791,2.4806,2.479,2.4787,2.4786,2.4772,2.4796,2.4795,2.4811,2.4763,2.481,2.48,2.4809,2.481,2.4808,2.4753,2.4751,2.475,2.4749,0,2.4624,2.4643,2.4641,2.4646,2.4645,2.465,2.4658,2.4652,2.4697,2.4692,2.4686,2.4686,2.4685,2.468,2.4684,2.4695,2.4728,2.4734,2.4725,2.4713,2.4702,2.4707,2.4855,2.4736,2.4738,2.4738,2.4739,2.474,2.4532,2.4518,2.4537,2.4534,2.4545,2.4552,2.4541,2.4564,2.456,2.4564,2.4588,2.4577,2.4592,2.4601,2.4609,2.46,2.4622,2.4609,2.4606,2.4602,2.4595,2.4704,2.4601,2.4601,2.4602,2.4602,2.4602,0,2.4416,2.4431,2.4429,2.444,2.4437,2.4472,2.4483,2.4478,2.4469,2.4481,2.448,2.4473,2.447,2.4495,2.4494,2.4483,2.4498,2.4481,2.4482,2.4484,2.4575,2.4583,2.4469,2.4469,2.4469,2.4469,2.4469,2.4469,2.4355,2.4332,2.4353,2.4336,2.4351,2.4343,2.4346,2.4352,2.4362,2.4353,2.4351,2.4368,2.4385,2.4387,2.4385,2.4392,2.4389,2.4367,2.4379,2.4464,2.4477,2.4489,2.4497,2.4366,2.4366,2.4288,2.4288,2.4287]}]]